This is the latest recevied weather packets stored in our database for station/object DB0MW-13. If no packets are shown the sender has not sent any weather packets the latest 1 day(s).
| Time | Temp. | Humidity | Pressure | Rain* | Wind** | Luminosity | Snow |
|---|---|---|---|---|---|---|---|
| 1777978500 | 22.22° C | 49% | 1008.9 hPa | 0 mm | 0 m/s | - | - |
| 1777978200 | 22.22° C | 49% | 1009 hPa | 0 mm | 0.45 m/s, 288° | - | - |
| 1777977900 | 22.22° C | 51% | 1009.1 hPa | 0 mm | 0.89 m/s, 284° | - | - |
| 1777977600 | 22.22° C | 52% | 1009.1 hPa | 0 mm | 0.89 m/s, 264° | - | - |
| 1777977300 | 22.22° C | 51% | 1009.2 hPa | 0 mm | 0.89 m/s, 114° | - | - |
| 1777977000 | 22.22° C | 52% | 1009.1 hPa | 0 mm | 0.45 m/s, 35° | - | - |
| 1777976700 | 21.67° C | 53% | 1009.3 hPa | 0 mm | 0.45 m/s, 28° | - | - |
| 1777976400 | 21.67° C | 55% | 1009.3 hPa | 0 mm | 0.45 m/s, 8° | - | - |
| 1777976101 | 21.67° C | 55% | 1009.3 hPa | 0 mm | 0.45 m/s, 173° | - | - |
| 1777975801 | 21.67° C | 54% | 1009.5 hPa | 0 mm | 0.45 m/s, 198° | - | - |
| 1777975501 | 21.67° C | 53% | 1009.4 hPa | 0 mm | 0.45 m/s, 190° | - | - |
| 1777975201 | 21.11° C | 53% | 1009.2 hPa | 0 mm | 0.45 m/s, 185° | - | - |
| 1777974901 | 21.11° C | 53% | 1009.4 hPa | 0 mm | 0 m/s | - | - |
| 1777974601 | 21.11° C | 53% | 1009.3 hPa | 0 mm | 0.45 m/s, 4° | - | - |
| 1777974301 | 21.11° C | 53% | 1009.3 hPa | 0 mm | 0.45 m/s, 16° | - | - |
| 1777974001 | 21.11° C | 54% | 1009.6 hPa | 0 mm | 0.89 m/s, 350° | - | - |
| 1777973700 | 21.11° C | 54% | 1009.3 hPa | 0 mm | 0 m/s | - | - |
| 1777973401 | 21.11° C | 54% | 1009.5 hPa | 0 mm | 0 m/s | - | - |
| 1777973101 | 20.56° C | 53% | 1009.5 hPa | 0 mm | 0.45 m/s, 323° | - | - |
| 1777972800 | 20.56° C | 53% | 1009.6 hPa | 0 mm | 0.45 m/s, 324° | - | - |
| 1777972500 | 20.56° C | 55% | 1009.8 hPa | 0 mm | 0.45 m/s, 351° | - | - |
| 1777972200 | 20.56° C | 56% | 1009.9 hPa | 0 mm | 0.45 m/s, 342° | - | - |
| 1777971900 | 20.56° C | 58% | 1009.9 hPa | 0 mm | 0.45 m/s, 352° | - | - |
| 1777971300 | 20° C | 61% | 1009.8 hPa | 0 mm | 0 m/s | - | - |
| 1777971000 | 20° C | 60% | 1009.7 hPa | 0 mm | 0 m/s | - | - |
* Rain latest hour (hover to see other rain measurements)
** Current wind speed in m/s (hover to see current wind gust speed)